Regional Weather Roundup
Issued by NWS

Home | Current Version | Previous Version | Graphics & Text | Print | Product List | Glossary Off
Versions: 1 2 3 4 5 6 7 8 9 10 11 12 13 14 15 16 17 18 19 20 21 22 23 24 25 26 27 28 29 30 31 32 33 34 35 36 37 38 39 40 41 42 43 44 45 46 47 48 49 50

000
ASUS43 KDMX 021807
RWRIA

WEATHER ROUNDUP FOR IOWA
NATIONAL WEATHER SERVICE DES MOINES IA
100 PM CDT TUE JUN 02 2015

NOTE: "FAIR" INDICATES FEW OR NO CLOUDS BELOW 12,000 FEET WITH NO
SIGNIFICANT WEATHER AND/OR OBSTRUCTIONS TO VISIBILITY.

* - THESE STATIONS ARE NOT NWS STATIONS...THUS NOT UNDER NWS
QUALITY CONTROL.  THEY ALSO DO NOT REPORT WEATHER SUCH
AS PRECIPITATION OR FOG.

IAZ001>003-012>014-020>022-031>034-043>046-021900-
   NORTHWEST IOWA

CITY           SKY/WX    TMP DP  RH WIND       PRES   REMARKS
CARROLL *      MOSUNNY   68  55  64 SE20      30.03F
CHEROKEE *     MOSUNNY   69  56  64 S13       30.00S
DENISON *      SUNNY     70  57  64 S12G22    29.99F
LE MARS *      PTSUNNY   75  59  57 S16G28    29.95F
ORANGE CITY *  MOSUNNY   72  57  60 S13G22    29.96F
SHELDON *      SUNNY     75  55  50 S18G30    29.96F
SIOUX CITY     CLOUDY    73  57  57 SE15      29.95F
6HR MIN TEMP:  59; 6HR MAX TEMP:  74;

SPENCER        SUNNY     71  55  56 S22G29    30.00S
6HR MIN TEMP:  56; 6HR MAX TEMP:  72;

STORM LAKE *   SUNNY     70  54  56 S20G28    30.02R
$$

IAZ055>058-069>071-079>083-090>094-021900-
   SOUTHWEST IOWA

CITY           SKY/WX    TMP DP  RH WIND       PRES   REMARKS
ATLANTIC *     SUNNY     70  54  56 S16G24    30.02F
AUDUBON *      SUNNY     68  55  64 S14G20    30.04F
CLARINDA *     SUNNY     72  55  56 SE12G20   30.02F
COUNCIL BLFS * MOSUNNY   72  61  68 S13G20    30.00S
CRESTON *      CLOUDY    64  55  72 S15G23    30.06F
HARLAN  *      SUNNY     72  57  60 SE15G22   30.03F
LAMONI         CLOUDY    67  55  65 SE10G18   30.07S
6HR MIN TEMP:  60; 6HR MAX TEMP:  68;

RED OAK *      SUNNY     72  57  60 S13G22    30.01S
SHENANDOAH *   SUNNY     73  57  56 S15G22    30.00F
$$

IAZ047>049-059>061-072>074-084-021900-
   CENTRAL IOWA

CITY           SKY/WX    TMP DP  RH WIND       PRES   REMARKS
AMES           CLOUDY    68  55  63 S18       30.05F
6HR MIN TEMP:  53; 6HR MAX TEMP:  68;

ANKENY *       CLOUDY    68  55  64 S14G20    30.06S
CHARITON *     CLOUDY    66  55  68 SE16      30.07F
DES MOINES     CLOUDY    67  54  63 SE21      30.06F
6HR MIN TEMP:  56; 6HR MAX TEMP:  67;

GRINNELL*      CLOUDY    68  54  60 SE12G18   30.09S
KNOXVILLE *    CLOUDY    68  54  60 S15       30.06F
MARSHALLTOWN   CLOUDY    67  55  65 S16       30.07F
6HR MIN TEMP:  54; 6HR MAX TEMP:  68;

PELLA *        CLOUDY    67  58  73 S12       30.09F
PERRY *        CLOUDY    65  54  65 S14G23    30.05F
$$

IAZ004>006-015-016-023>025-035-036-021900-
   NORTH CENTRAL IOWA

CITY           SKY/WX    TMP DP  RH WIND       PRES   REMARKS
ALGONA *       SUNNY     72  55  56 S20G26    30.03S
CLARION *      SUNNY     72  52  49 S21G28    30.03F
ESTHERVILLE    SUNNY     68  55  63 S21G30    30.01F
6HR MIN TEMP:  55; 6HR MAX TEMP:  68;

FORT DODGE *   MOSUNNY   70  54  56 S15G23    30.05S
MASON CITY     MOSUNNY   72  55  55 S20G29    30.06F
6HR MIN TEMP:  53; 6HR MAX TEMP:  73;

FOREST CITY *  MOSUNNY   68  54  60 S20G25    30.04F
IOWA FALLS *   PTSUNNY   70  54  56 S18G25    30.06F
$$

IAZ007>011-017>019-026>030-037>042-050>054-066-021900-
   NORTHEAST IOWA

CITY           SKY/WX    TMP DP  RH WIND       PRES   REMARKS
CEDAR RAPIDS   MOSUNNY   70  53  54 S9        30.09F
6HR MIN TEMP:  55; 6HR MAX TEMP:  70;

CHARLES CITY * CLOUDY    68  54  60 S17       30.08F
CLINTON *      MOSUNNY   70  50  49 SE8       30.15F
DECORAH *      MOSUNNY   68  50  52 VRB7G18   30.08F
DUBUQUE        MOSUNNY   68  52  56 SE7       30.12F
6HR MIN TEMP:  53; 6HR MAX TEMP:  68;

MONTICELLO *   MOSUNNY   70  50  49 SE8G15    30.10F
OELWEIN *      PTSUNNY   72  52  49 S13G18    30.09F
WATERLOO       CLOUDY    69  55  60 S10       30.08S
6HR MIN TEMP:  54; 6HR MAX TEMP:  69;

$$

IAZ064-065-067-068-078-021900-
   EAST CENTRAL IOWA

CITY           SKY/WX    TMP DP  RH WIND       PRES   REMARKS
DAVENPORT      MOSUNNY   69  49  48 SE12      30.12F
6HR MIN TEMP:  52; 6HR MAX TEMP:  70;

IOWA CITY      MOSUNNY   71  53  52 MISG      30.11F
6HR MIN TEMP:  58; 6HR MAX TEMP:  72;

MT. PLEASANT * PTSUNNY   70  50  50 SE7       30.11S
MUSCATINE *    MOSUNNY   72  52  49 SE10      30.11F
QUAD CITIES    MOSUNNY   71  50  47 SE8       30.11F
6HR MIN TEMP:  51; 6HR MAX TEMP:  71;

$$

IAZ062-063-075>077-085>089-095>099-021900-
   SOUTHEAST IOWA

CITY           SKY/WX    TMP DP  RH WIND       PRES   REMARKS
BURLINGTON     PTSUNNY   69  54  58 S10       30.11F
6HR MIN TEMP:  54; 6HR MAX TEMP:  69;

FAIRFIELD *    CLOUDY    68  54  60 SE9G15    30.11R
FORT MADISON *   N/A     66  55  68 SE7       30.12F
KEOKUK *       CLOUDY    68  55  64 SE6       30.10F
OSKALOOSA *    CLOUDY    69  53  57 S16       30.09F
CENTERVILLE *  MOSUNNY   66  66 100 SE13      30.09F
OTTUMWA        CLOUDY    67  55  65 S12       30.08S
6HR MIN TEMP:  54; 6HR MAX TEMP:  69;

WASHINGTON *   MOSUNNY   72  50  46 SE15      30.11F
$$

ABBREVIATIONS USED IN REMARKS
   TC - TEMPERATURES IN CELSIUS
  WCI - WIND CHILL INDEX
   HX - HEAT INDEX
  VSB - VISIBILITY
$$



USA.gov is the U.S. government's official web portal to all federal, state and local government web resources and services.